User: anonymous   Login
Location: Karlovy Vary
(50.2170°N, 12.9000°E)
Time: 06:55:13
(UTC+02:00)
Language:

ISS - Orbit

View from above orbital plane
View from above orbital plane
View from above satellite
View from above satellite

Ground track
Ground track

The orbit data is extracted from the following two-line orbital elements,

1 25544U 98067A   15186.86051970  .00008724  00000-0  13201-3 0  9998
2 25544 051.6458 350.7695 0003495 127.0597 016.6060 15.55535278950940
Epoch (UTC): 05 July 2015 20:39:08
Eccentricity: 0.0003495
inclination: 51.6458°
perigee height: 398 km
apogee height: 403 km
right ascension of ascending node: 350.7695°
argument of perigee: 127.0597°
revolutions per day: 15.55535278
mean anomaly at epoch: 16.6060°
orbit number at epoch: 95094

The dashed part of the orbit path shows where the satellite is in the earth's shadow,  

DLR